User: anonymous   Login
Location: Unspecified
(0.0000°N, 0.0000°E)
Time: 19:00:33
(UTC+00:00)
Language:

GOES 2 - Orbit

View from above orbital plane
View from above orbital plane
View from above satellite
View from above satellite

Ground track
Ground track

The orbit data is extracted from the following two-line orbital elements,

1 10061U 77048A   19085.42737168 -.00000173  00000-0  00000+0 0  9996
2 10061  12.2581 320.2065 0018140 348.3146 204.2124  0.99401830 97274
Epoch (UTC): 26 March 2019 10:15:24
Eccentricity: 0.0018140
inclination: 12.2581°
perigee height: 35955 km
apogee height: 36109 km
right ascension of ascending node: 320.2065°
argument of perigee: 348.3146°
revolutions per day: 0.99401830
mean anomaly at epoch: 204.2124°
orbit number at epoch: 9727

The dashed part of the orbit path shows where the satellite is in the earth's shadow,  

DLR